www.pogodaiklimat.ru

Погода и климат >> Архив погоды >> Беларусь >> Ивацевичи


ПОГОДА в Ивацевичах

  • Прогноз погоды в Ивацевичах
  • Монитор погоды в Ивацевичах

АРХИВ ПОГОДЫ в Ивацевичах

Время (UTC), дата Ветер
(напр.,м/с)
 
Видим.   Явления Облачность Т
(С)
Тd
(С)
f
(%)
Тe
(С)
Тes
(С)
Комфортность P
(гПа)
Po
(гПа)
Тmin
(С)
Tmax
(С)
R
(мм)
R24
(мм)
S
(см)
00 13.07 штиль 0 н/о н/о +10.9 +9.8 93 +10 +10 1010.0 991.3
03 13.07 штиль 0 н/о н/о +10.2 +9.1 93 +9 +10 1010.0 991.2 +9.4
06 13.07 штиль 0 20 км 8/0
[Ci fib]
+17.6 +10.5 63 +18 +18 1010.0 991.7 +9.4
09 13.07 В 1 20 км 9/5 600 м
[Cu med, cong Ci fib]
+19.9 +8.9 49 +22 +22 комфорт 1010.0 991.8
12 13.07 ЮВ 1 20 км 8/6 870 м
[Cu med, cong Ci fib]
+21.7 +7.5 40 +23 +23 комфорт 1008.0 990.0
15 13.07 ЮЗ 3 20 км в посл. час ливневой дождь 9/9 800 м
[Cb calv]
+19.4 +10.7 57 +21 +21 комфорт 1009.0 990.8
18 13.07 С 1 20 км {ливн. осадки} 5/5 600 м
[]
+16.0 +11.4 74 +17 +17 1010.0 991.6 +23.9 0.0
21 13.07 СВ 1 н/о н/о +14.3 +11.6 84 +15 +15 1010.0 991.5
00 14.07 штиль 0 н/о н/о +13.5 +12.2 92 +13 +13 1010.0 991.4
03 14.07 штиль 0 н/о н/о +13.3 +12.5 95 +13 +13 1010.0 991.4 +12.7
06 14.07 штиль 0 20 км 3/1 600 м
[Sc Ac trans Ci fib]
+15.8 +12.5 81 +16 +22 1010.0 991.6 +12.7 0.5
09 14.07 В 1 20 км {ливн. осадки} 8/8 800 м
[Cb calv]
+17.1 +11.8 71 +18 +18 1010.0 991.7
12 14.07 С 1 20 км в посл. час ливневой дождь {гроза} 9/8 720 м
[Cb calv Ci fib]
+18.6 +11.4 63 +20 +20 1010.0 991.8
15 14.07 С 2 20 км {ливн. осадки} 6/3 600 м
[Cb calv Ci fib]
+18.4 +11.0 62 +19 +21 1010.0 991.8
18 14.07 С 2 20 км {ливн. осадки} 9/8 800 м
[Cb calv Ci fib]
+15.7 +10.7 72 +16 +16 1011.0 992.6 +20.2 5
21 14.07 СЗ 1 н/о н/о +14.6 +10.8 78 +15 +15 1012.0 993.5
00 15.07 штиль 0 н/о н/о +12.8 +10.5 86 +12 +12 1011.0 992.4
03 15.07 С 2 н/о н/о +12.0 +10.1 88 +11 +11 1012.0 993.3 +11.9
06 15.07 С 1 20 км 8/3 600 м
[Sc Ac trans]
+16.3 +11.2 72 +17 +17 1012.0 993.6 +11.9
09 15.07 С 1 20 км 8/8 800 м
[Cu Sc]
+19.4 +9.3 52 +21 +21 комфорт 1011.0 992.8
12 15.07 В 1 20 км 9/8 800 м
[Cu Sc Ac trans]
+21.7 +10.2 48 +23 +23 комфорт 1011.0 992.9
15 15.07 СЗ 1 20 км 9/9 840 м
[Sc]
+21.4 +7.2 40 +22 +22 комфорт 1011.0 992.9
18 15.07 ЮЗ 1 20 км 6/6 870 м
[Sc]
+19.1 +10.4 57 +21 +21 комфорт 1011.0 992.8 +23.0
21 15.07 штиль 0 н/о н/о +15.4 +10.8 74 +15 +15 1011.0 992.5
00 16.07 З 1 н/о н/о +12.9 +9.9 82 +13 +13 1011.0 992.4
03 16.07 штиль 0 н/о н/о +10.8 +9.4 91 +10 +10 1011.0 992.2 +9.9
06 16.07 Ю 1 20 км ясно +19.0 +9.7 55 +21 +28 комфорт 1010.0 991.8 +9.9
09 16.07 З 3 20 км 9/8 800 м
[Cu Sc Ci fib]
+22.5 +7.5 38 +23 +23 комфорт 1008.0 990.0
12 16.07 ЮЗ 3 20 км 9/8 750 м
[Cu Sc Ci fib]
+23.6 +7.6 36 +24 +24 комфорт 1007.0 989.1
15 16.07 З 4
{13}
15 км в посл. час ливневой дождь 10/10 720 м
[Cb calv]
+17.6 +11.6 68 +17 +17 1007.0 988.8
18 16.07 СЗ 1 20 км {ливн. осадки} 9/9 840 м
[Sc]
+17.0 +9.9 63 +18 +18 1008.0 989.7 +24.4 0.3
21 16.07 З 2 н/о н/о +14.4 +8.8 69 +14 +14 1008.0 989.5
00 17.07 З 1 н/о н/о +12.8 +9.2 79 +13 +13 1008.0 989.4
03 17.07 З 1 н/о н/о +11.7 +10.4 92 +11 +12 1007.0 988.4 +11.7
06 17.07 З 1 20 км 9/8 800 м
[Sc Ac trans]
+14.6 +10.6 77 +15 +15 1007.0 988.6 +11.6
09 17.07 З 1 20 км 9/9 800 м
[Cb calv]
+15.9 +10.4 70 +17 +17 1007.0 988.6
12 17.07 ЮЗ 2 20 км {ливн. осадки} 9/6 840 м
[Cb calv Ci fib]
+16.0 +12.2 78 +16 +16 1008.0 989.6
15 17.07 ЮЗ 1 20 км {ливн. осадки} 8/8 800 м
[Cb calv]
+17.6 +9.7 60 +19 +19 1007.0 988.7
18 17.07 ЮЗ 1 20 км {ливн. осадки} 9/9 800 м
[Sc]
+15.6 +11.6 77 +16 +16 1008.0 989.6 +19.2 1
21 17.07 штиль 0 н/о н/о +13.0 +10.5 85 +13 +13 1009.0 990.4
00 18.07 СЗ 1 н/о н/о +12.5 +11.1 91 +12 +12 1009.0 990.4
03 18.07 З 1 н/о н/о +12.6 +12.0 96 +13 +13 1009.0 990.4 +11.2
06 18.07 СЗ 2 15 км 10/10 720 м
[Sc]
+14.8 +12.7 87 +14 +14 1010.0 991.5 +11.2 0.1
09 18.07 СЗ 2 20 км 9/9 800 м
[Sc]
+17.7 +12.4 71 +18 +18 1010.0 991.7
12 18.07 СЗ 3
{10}
20 км 9/9 800 м
[Cu Sc]
+20.7 +11.1 54 +23 +23 комфорт 1010.0 991.9
15 18.07 С 2 20 км 9/9 840 м
[Cu Sc]
+21.3 +11.6 54 +23 +23 комфорт 1011.0 992.9
18 18.07 СЗ 1 20 км 1/0
[Ci fib]
+20.2 +11.4 57 +23 +23 комфорт 1011.0 992.8 +23.4
21 18.07 штиль 0 н/о н/о +15.1 +10.7 75 +15 +15 1013.0 994.5
00 19.07 СЗ 1 н/о н/о +13.9 +10.7 81 +14 +14 1014.0 995.4
03 19.07 З 1 н/о н/о +11.3 +9.9 91 +11 +11 1014.0 995.2 +11.2
06 19.07 З 1 10 км 3 балла +17.7 +13.0 74 +19 +24 1014.0 995.6 +11.2
09 19.07 СЗ 1 10 км 3 балла +23.0 +9.0 41 +24 +37 комфорт 1014.0 996.0
12 19.07 ЮЗ 3 10 км 6 баллов +24.9 +9.2 37 +26 +30 жарко 1014.0 996.1
15 19.07 З 2 10 км 6 баллов +23.9 +9.5 40 +25 +27 комфорт 1013.0 995.0
18 19.07 С 1 10 км 3 балла +22.1 +9.6 45 +24 +24 комфорт 1014.0 995.9 +25.6
21 19.07 штиль 0 н/о н/о +15.0 +10.6 75 +15 +15 1016.0 997.4

 

Местоположение метеостанции Ивацевичи (Брестская область, Беларусь): широта 52.70 долгота 25.36 высота над уровнем моря 156 м.

В архиве по умолчанию представлена погода в Ивацевичах за последнюю неделю. Архивные данные за месяц целиком и за предыдущие месяцы, начиная с января 2011 года, Вы можете получить, выбрав интересующий диапазон дат из раскрывающегося списка и нажав кнопку "Ввод!".


*Определитесь, кто Вы:
робот инопланетянин человек

Внимание! Время в таблицах - всемирное. Для получения местного времени необходимо прибавить поправку, которая равна 3 ч.

Смотрите также архив погоды в соседних городах и на ближайших метеорологических станциях:

Погода в Дрогичине (Брестская область, Беларусь) (58 км)
Погода в Пружанах (Брестская область, Беларусь) (61 км)
Погода в Барановичах (Брестская область, Беларусь) (63 км)
Погода в Ганцевичах (Брестская область, Беларусь) (73 км)
Погода в Пинске (Брестская область, Беларусь) (80 км)
Погода в Волковыске (Гродненская область, Беларусь) (80 км)
Погода в Полесской (Брестская область, Беларусь) (101 км)
Погода в Новогрудке (Гродненская область, Беларусь) (105 км)
Погода в Любешове (Волынская область, Украина) (115 км)
Погода в Столбцах (Минская область, Беларусь) (126 км)

Пояснения к столбцам:

Ветер - указаны скорость ветра в м/с - средняя за 10 мин, порывы в срок и между сроками (в фигурных скобках) и направление, откуда дует ветер: С - северный, СВ - северо-восточный, В - восточный, ЮВ - юго-восточный, Ю - южный, ЮЗ - юго-западный, З - западный, СЗ - северо-западный.
Видимость - горизонтальная дальность видимости в метрах или километрах. При видимости от 1 до 10 км при отсутствии осадков обычно наблюдается дымка, при ухудшении видимости до 1 км и менее - туман. В сухую погоду видимость может ухудшаться дымом, пылью или мглою.
Явления - указаны атмосферные явления, наблюдавшиеся в срок или в последний час перед сроком; фигурными скобками обозначены явления, наблюдавшиеся между сроками (за 1-3 часа до срока); квадратными скобками обозначены град или гололедные отложения с указанием их диаметра в мм.
Облачность - указаны через наклонную черту общая и нижняя облачность в баллах и высота нижней границы облаков в метрах; квадратными скобками обозначены формы облаков: Ci - перистые, Cs - перисто-слоистые, Cc - перисто-кучевые, Ac - высококучевые, As - высокослоистые, Sc - слоисто-кучевые, Ns - слоисто-дождевые, Cu - кучевые, Cb - кучево-дождевые. Подробнее классификацию облаков см. в Атласе облаков (PDF).
T - Температура воздуха - температура, измеренная на высоте 2 м над землей.
Td - Температура точки росы - температура, при понижении до которой содержащийся в воздухе водяной пар достигнет насыщения.
f - Относительная влажность воздуха - влажноcть воздуха, измеренная на высоте 2 м над землей.
Te - Эффективная температура - температура, которую ощущает одетый по сезону человек в тени. Характеристика душности погоды. При расчете учитывается влияние влажности воздуха и скорости ветра на теплоощущения человека.
Tes - Эффективная температура на солнце - температура, которую ощущает человек, с поправкой на солнечный нагрев. Характеристика знойности погоды. Зависит от высоты солнца над горизонтом, облачности и скорости ветра. Ночью, в пасмурную погоду, а также при ветре 12 м/с и более поправка равна нулю.
P - Атмосферное давление - приведенное к уровню моря атмосферное давление.
Po - Атмосферное давление - измеренное на уровне метеостанции атмосферное давление.
Tmin - Минимальная температура - минимум температуры воздуха на высоте 2 м над землей.
Tmax - Максимальная температура - максимум температуры воздуха на высоте 2 м над землей.
R - Количество осадков - Количество выпавших осадков за период времени, мм. При наведении курсора мыши на число - период времени, за который выпало указанное количество осадков.
R24 - Количество осадков - Количество выпавших осадков за 24 часа, мм.
S - Снежный покров - Высота снежного покрова, см. При наведении курсора мыши на число - состояние снежного покрова и степень покрытия местности в баллах.